TimeEST,TemperatureF,Dew PointF,Humidity,Sea Level PressureIn,VisibilityMPH,Wind Direction,Wind SpeedMPH,Gust SpeedMPH,PrecipitationIn,Events,Conditions,WindDirDegrees,DateUTC
12:56 AM,31.1,23.0,72,30.16,7.0,SW,6.9,-,N/A,,Overcast,220,2013-01-06 05:56:00
1:56 AM,31.1,23.0,72,30.14,7.0,SSW,6.9,-,N/A,,Overcast,210,2013-01-06 06:56:00
2:56 AM,31.1,24.1,75,30.12,7.0,SSW,6.9,-,N/A,,Overcast,210,2013-01-06 07:56:00
3:56 AM,32.0,24.1,73,30.11,7.0,SSW,10.4,-,N/A,,Overcast,210,2013-01-06 08:56:00
4:56 AM,32.0,25.2,76,30.08,7.0,SSW,10.4,-,N/A,,Overcast,210,2013-01-06 09:56:00
5:56 AM,32.0,25.2,76,30.07,7.0,SW,9.2,-,N/A,,Overcast,220,2013-01-06 10:56:00
6:56 AM,32.9,25.2,73,30.07,7.0,SW,10.4,-,N/A,,Overcast,220,2013-01-06 11:56:00
7:56 AM,32.9,26.1,76,30.08,6.0,SW,10.4,-,N/A,,Haze,220,2013-01-06 12:56:00
8:56 AM,32.9,26.1,76,30.07,5.0,SW,11.5,-,N/A,,Haze,220,2013-01-06 13:56:00
9:56 AM,34.0,27.1,76,30.08,6.0,SW,15.0,-,N/A,,Haze,220,2013-01-06 14:56:00
10:31 AM,33.8,26.6,75,30.05,5.0,SW,12.7,-,N/A,,Haze,220,2013-01-06 15:31:00
10:56 AM,34.0,27.1,76,30.08,5.0,SW,10.4,-,N/A,,Haze,220,2013-01-06 15:56:00
11:56 AM,34.9,28.0,76,30.05,5.0,SW,13.8,-,N/A,,Haze,220,2013-01-06 16:56:00
12:56 PM,34.0,28.0,79,30.04,4.0,WSW,16.1,-,N/A,,Haze,250,2013-01-06 17:56:00
1:45 PM,33.8,28.4,81,30.01,2.5,WSW,12.7,-,0.00,,Overcast,250,2013-01-06 18:45:00
1:56 PM,32.9,30.0,89,30.04,1.8,WSW,12.7,-,0.00,,Overcast,240,2013-01-06 18:56:00
2:03 PM,33.8,28.4,81,30.02,2.5,WSW,15.0,-,0.00,,Overcast,240,2013-01-06 19:03:00
2:10 PM,33.8,30.2,87,30.02,2.5,WSW,11.5,-,0.00,,Overcast,240,2013-01-06 19:10:00
2:25 PM,33.8,28.4,81,30.02,3.0,WSW,11.5,-,0.00,,Overcast,250,2013-01-06 19:25:00
2:38 PM,33.8,28.4,81,30.03,2.5,WSW,10.4,-,0.00,,Overcast,240,2013-01-06 19:38:00
2:46 PM,33.8,28.4,81,30.03,2.5,WSW,11.5,-,0.00,,Overcast,240,2013-01-06 19:46:00
2:56 PM,32.9,29.1,86,30.07,3.0,West,20.7,26.5,0.00,,Overcast,280,2013-01-06 19:56:00
2:58 PM,32.0,28.4,87,30.04,3.0,West,25.3,29.9,0.00,,Overcast,280,2013-01-06 19:58:00
3:27 PM,30.2,26.6,86,30.07,2.0,West,21.9,28.8,0.00,,Overcast,280,2013-01-06 20:27:00
3:56 PM,30.0,27.1,89,30.13,1.8,WNW,15.0,-,0.00,Rain,Light Freezing Rain,290,2013-01-06 20:56:00
4:23 PM,28.4,24.8,86,30.11,3.0,West,17.3,27.6,0.00,Rain,Light Freezing Rain,280,2013-01-06 21:23:00
4:34 PM,28.4,24.8,86,30.12,3.0,West,18.4,-,0.00,Rain,Light Freezing Rain,270,2013-01-06 21:34:00
4:41 PM,28.4,23.0,80,30.12,4.0,West,16.1,-,0.00,,Haze,270,2013-01-06 21:41:00
4:56 PM,28.0,23.0,81,30.17,3.0,WNW,20.7,27.6,0.00,,Haze,290,2013-01-06 21:56:00
5:35 PM,24.8,19.4,80,30.16,4.0,WNW,25.3,28.8,N/A,,Haze,290,2013-01-06 22:35:00
5:56 PM,24.1,18.1,78,30.22,5.0,WNW,20.7,26.5,N/A,,Haze,290,2013-01-06 22:56:00
6:56 PM,23.0,18.1,82,30.25,4.0,West,16.1,-,N/A,,Haze,280,2013-01-06 23:56:00
7:56 PM,23.0,18.1,82,30.28,4.0,West,15.0,-,N/A,,Haze,280,2013-01-07 00:56:00
8:56 PM,23.0,19.0,85,30.30,4.0,West,16.1,-,N/A,,Overcast,280,2013-01-07 01:56:00
9:56 PM,24.1,19.0,81,30.32,4.0,West,12.7,-,N/A,,Haze,270,2013-01-07 02:56:00
10:56 PM,24.1,20.1,85,30.35,4.0,West,10.4,-,N/A,,Mostly Cloudy,270,2013-01-07 03:56:00
11:56 PM,25.2,20.1,81,30.37,4.0,West,10.4,-,N/A,,Haze,270,2013-01-07 04:56:00